| time (UTC) | temp F | wind direction | speed MPH | gust MPH | rain 1hr in | rain 24hr in | rain mn in | humidity % | barometer mb |
| 20260504234552 | 66 | 141 | 1.0 | 6.0 | 0.00 | 0.00 | 0.00 | 51 | 1015.3 |
| 20260504233106 | 67 | 156 | 2.0 | 7.0 | 0.00 | 0.00 | 0.00 | 52 | 1015.2 |
| 20260504231551 | 67 | 179 | 2.0 | 6.0 | 0.00 | 0.00 | 0.00 | 49 | 1015.2 |
| 20260504230050 | 67 | 152 | 1.0 | 5.0 | 0.00 | 0.00 | 0.00 | 45 | 1015.2 |
| 20260504224556 | 68 | 149 | 2.0 | 9.0 | 0.00 | 0.00 | 0.00 | 45 | 1015.2 |
| 20260504223105 | 68 | 159 | 3.0 | 7.0 | 0.00 | 0.00 | 0.00 | 43 | 1015.2 |
| 20260504221547 | 69 | 196 | 4.0 | 9.0 | 0.00 | 0.00 | 0.00 | 43 | 1015.2 |
| 20260504220046 | 69 | 96 | 4.0 | 11.0 | 0.00 | 0.00 | 0.00 | 46 | 1015.1 |
| 20260504214544 | 70 | 205 | 4.0 | 12.0 | 0.00 | 0.00 | 0.00 | 44 | 1015.1 |
| 20260504213054 | 70 | 127 | 6.0 | 12.0 | 0.00 | 0.00 | 0.00 | 42 | 1015.1 |
| 20260504211543 | 71 | 212 | 3.0 | 13.0 | 0.00 | 0.00 | 0.00 | 45 | 1015.1 |
| 20260504210042 | 73 | 196 | 4.0 | 12.0 | 0.00 | 0.00 | 0.00 | 39 | 1015.1 |
| 20260504204547 | 73 | 236 | 5.0 | 10.0 | 0.00 | 0.00 | 0.00 | 38 | 1015.2 |
| 20260504203051 | 72 | 238 | 5.0 | 10.0 | 0.00 | 0.00 | 0.00 | 42 | 1015.1 |
| 20260504201538 | 72 | 323 | 3.0 | 5.0 | 0.00 | 0.00 | 0.00 | 44 | 1015.3 |
| 20260504200035 | 72 | 217 | 3.0 | 7.0 | 0.00 | 0.00 | 0.00 | 40 | 1015.7 |
| 20260504194534 | 72 | 211 | 2.0 | 7.0 | 0.00 | 0.00 | 0.00 | 43 | 1015.7 |
| 20260504193030 | 72 | 318 | 3.0 | 9.0 | 0.00 | 0.00 | 0.00 | 42 | 1015.9 |
| 20260504191528 | 72 | 211 | 3.0 | 13.0 | 0.00 | 0.00 | 0.00 | 50 | 1016.2 |
| 20260504190027 | 72 | 209 | 4.0 | 12.0 | 0.00 | 0.00 | 0.00 | 43 | 1016.2 |
| 20260504184527 | 72 | 195 | 9.0 | 13.0 | 0.00 | 0.00 | 0.00 | 42 | 1016.3 |
| 20260504183024 | 71 | 209 | 4.0 | 10.0 | 0.00 | 0.00 | 0.00 | 46 | 1016.4 |
| 20260504181521 | 70 | 174 | 1.0 | 7.0 | 0.00 | 0.00 | 0.00 | 46 | 1016.7 |
| 20260504180020 | 69 | 141 | 3.0 | 11.0 | 0.00 | 0.00 | 0.00 | 50 | 1016.9 |
| 20260504174518 | 70 | 161 | 4.0 | 11.0 | 0.00 | 0.00 | 0.00 | 49 | 1017.0 |
| 20260504173016 | 69 | 59 | 2.0 | 7.0 | 0.00 | 0.00 | 0.00 | 46 | 1017.1 |
| 20260504171515 | 69 | 38 | 3.0 | 8.0 | 0.00 | 0.00 | 0.00 | 47 | 1017.3 |
| 20260504150103 | 63 | 239 | 3.0 | 8.0 | 0.00 | 0.00 | 0.00 | 52 | 1019.6 |
| 20260504090112 | 38 | 72 | 3.0 | 5.0 | 0.00 | 0.00 | 0.00 | 92 | 1019.0 |
| 20260504081553 | 39 | 71 | 2.0 | 4.0 | 0.00 | 0.00 | 0.00 | 89 | 1018.7 |
| 20260504044541 | 42 | 54 | 0.0 | 0.0 | 0.00 | 0.00 | 0.00 | 84 | 1019.0 |
| 20260504043029 | 42 | 52 | 0.0 | 0.0 | 0.00 | 0.00 | 0.00 | 83 | 1018.8 |
| 20260504041527 | 42 | 53 | 0.0 | 0.0 | 0.00 | 0.00 | 0.00 | 81 | 1018.7 |
| 20260504040023 | 43 | 53 | 0.0 | 0.0 | 0.00 | 0.00 | 0.00 | 80 | 1018.7 |
| 20260504034523 | 43 | 50 | 0.0 | 0.0 | 0.00 | 0.00 | 0.00 | 80 | 1018.7 |
| 20260504033022 | 44 | 50 | 0.0 | 0.0 | 0.00 | 0.00 | 0.00 | 80 | 1018.7 |
| 20260504031524 | 44 | 51 | 0.0 | 1.0 | 0.00 | 0.00 | 0.00 | 78 | 1018.8 |
| 20260504030023 | 45 | 49 | 1.0 | 2.0 | 0.00 | 0.00 | 0.00 | 77 | 1018.8 |
| 20260504024521 | 45 | 51 | 1.0 | 3.0 | 0.00 | 0.00 | 0.00 | 77 | 1019.0 |
| 20260504023022 | 45 | 59 | 0.0 | 0.0 | 0.00 | 0.00 | 0.00 | 75 | 1019.0 |
| 20260504021520 | 46 | 57 | 0.0 | 0.0 | 0.00 | 0.00 | 0.00 | 72 | 1018.8 |
| 20260504020019 | 47 | 57 | 0.0 | 0.0 | 0.00 | 0.00 | 0.00 | 71 | 1018.6 |
| 20260504014522 | 48 | 61 | 0.0 | 0.0 | 0.00 | 0.00 | 0.00 | 69 | 1018.2 |
| 20260504013021 | 48 | 60 | 0.0 | 1.0 | 0.00 | 0.00 | 0.00 | 68 | 1018.1 |
| 20260504011517 | 49 | 60 | 0.0 | 2.0 | 0.00 | 0.00 | 0.00 | 68 | 1017.9 |
| 20260504010016 | 50 | 58 | 0.0 | 0.0 | 0.00 | 0.00 | 0.00 | 66 | 1017.9 |
| 20260504004517 | 52 | 62 | 0.0 | 2.0 | 0.00 | 0.00 | 0.00 | 63 | 1017.8 |
| 20260504003016 | 54 | 63 | 0.0 | 5.0 | 0.00 | 0.00 | 0.00 | 60 | 1017.7 |
| 20260504001516 | 55 | 80 | 1.0 | 3.0 | 0.00 | 0.00 | 0.00 | 59 | 1017.6 |
| 20260504000015 | 56 | 360 | 1.0 | 4.0 | 0.00 | 0.00 | 0.00 | 56 | 1017.6 |